Flag for USA

Past Weather in Brooklyn, New York, USA — Yesterday and Last 2 Weeks

Currently: 44 °F. Mostly cloudy. (Weather station: New York City - Central Park, USA). See more current weather

Past Weather in Brooklyn — Graph

°F

Brooklyn Temperature Yesterday

Maximum temperature yesterday: 46 °F (at 4:51 pm)
Minimum temperature yesterday: 38 °F (at 5:51 am)
Average temperature yesterday: 41 °F

High & Low Weather Summary for the Past Weeks

 TemperatureHumidityPressure
High51 °F (Jan 2, 11:51 am)97% (Jan 2, 2:01 am)30.36 "Hg (Jan 2, 2:01 am)
Low25 °F (Jan 9, 5:51 am)39% (Jan 10, 1:51 pm)29.35 "Hg (Jan 16, 12:51 pm)
Average37 °F68%29.97 "Hg
* Reported Jan 1 3:51 pm — Jan 16 3:51 pm, Brooklyn. Weather by CustomWeather, © 2021

Note: Actual official high and low records may vary slightly from our data, if they occured in-between our weather recording intervals... More about our weather records

Brooklyn Weather History for the Previous 24 Hours

Scroll right to see more
 ConditionsComfort  
Time TempWeatherWind HumidityBarometerVisibility
3:51 pm
Sat, Jan 16
44 °FMostly cloudy.10 mph63%29.37 "Hg10 mi
3:05 pm45 °FBroken clouds.10 mph65%29.38 "Hg10 mi
1:58 pm46 °FBroken clouds.3 mph73%29.38 "Hg10 mi
1:11 pm45 °FMostly cloudy.9 mph80%29.37 "Hg10 mi
1:02 pm46 °FMore clouds than sun.8 mph79%29.38 "Hg10 mi
12:51 pm46 °FMostly cloudy.10 mph79%29.35 "Hg10 mi
12:00 pm46 °FOvercast.5 mph79%29.40 "Hg10 mi
11:51 am45 °FOvercast.8 mph82%29.38 "Hg10 mi
11:04 am44 °FOvercast.9 mph85%29.43 "Hg10 mi
10:51 am44 °FMostly cloudy.5 mph85%29.42 "Hg10 mi
9:51 am42 °FLow clouds.No wind85%29.44 "Hg10 mi
8:51 am41 °FLow clouds.8 mph89%29.44 "Hg10 mi
7:51 am41 °FLow clouds.5 mph93%29.44 "Hg10 mi
6:51 am42 °FLow clouds.7 mph89%29.46 "Hg10 mi
5:51 am41 °FLight rain. Mostly cloudy.12 mph93%29.51 "Hg8 mi
5:13 am41 °FRain. Fog.10 mph93%29.57 "Hg5 mi
4:51 am41 °FRain. Fog.10 mph89%29.55 "Hg4 mi
3:51 am41 °FRain. Fog.15 mph93%29.59 "Hg5 mi
3:19 am41 °FRain. Fog.18 mph93%29.66 "Hg4 mi
2:54 am41 °FHeavy rain. Fog.15 mph93%29.65 "Hg2 mi
2:21 am42 °FHeavy rain. Fog.5 mph92%29.67 "Hg2 mi
1:51 am42 °FLight rain. Low clouds.9 mph92%29.66 "Hg9 mi
12:51 am45 °FLow clouds.8 mph90%29.71 "Hg10 mi
11:51 pm
Fri, Jan 15
44 °FLight rain. Fog.5 mph93%29.76 "Hg6 mi
11:15 pm42 °FLight rain. Fog.No wind92%29.78 "Hg4 mi
10:51 pm42 °FRain. Fog.7 mph92%29.76 "Hg2 mi
10:18 pm43 °FHeavy rain. Fog.9 mph89%29.79 "Hg2 mi
9:51 pm43 °FRain. Fog.10 mph89%29.80 "Hg3 mi
9:29 pm43 °FRain. Fog.8 mph89%29.83 "Hg3 mi
8:51 pm43 °FOvercast.9 mph89%29.83 "Hg8 mi
7:51 pm46 °FOvercast.10 mph79%29.88 "Hg10 mi
6:51 pm46 °FOvercast.9 mph79%29.90 "Hg9 mi
5:51 pm46 °FOvercast.6 mph79%29.92 "Hg10 mi
5:07 pm46 °FOvercast.3 mph77%29.97 "Hg9 mi
Weather by CustomWeather, © 2021

See weather overview